Location: Zlin
(49.2330°N, 17.6670°E)
Time: 00:31:37
(UTC+01:00)

ISS - Visible Passes

Search period start: 29 November 2023 00:00
Search period end: 09 December 2023 00:00
Orbit: 416 x 418 km, 51.6° (Epoch: 28 November)

Date Brightness Start Highest point End Pass type
(mag) Time Alt. Az. Time Alt. Az. Time Alt. Az.
29 Nov -3.5 16:41:37 10° WNW 16:44:56 54° N 16:48:05 11° E visible
29 Nov -2.8 18:18:27 10° WNW 18:21:00 48° W 18:21:00 48° W visible
30 Nov -3.9 17:30:06 10° WNW 17:33:29 82° NNE 17:34:46 35° ESE visible
30 Nov -0.5 19:07:06 10° W 19:07:42 13° W 19:07:42 13° W visible
01 Dec -3.7 16:41:43 10° WNW 16:45:04 66° NNE 16:48:25 10° E visible
01 Dec -2.5 18:18:34 10° WNW 18:21:32 38° SW 18:21:32 38° SW visible
02 Dec -3.2 17:30:04 10° WNW 17:33:23 57° SSW 17:35:28 20° SE visible
02 Dec -0.3 19:08:05 10° WSW 19:08:25 11° WSW 19:08:25 11° WSW visible
03 Dec -3.7 16:41:35 10° WNW 16:44:56 80° SSW 16:48:18 10° ESE visible
03 Dec -1.3 18:18:51 10° W 18:21:18 19° SW 18:22:31 16° SSW visible
04 Dec -1.7 17:30:01 10° W 17:32:57 28° SW 17:35:52 10° SSE visible
05 Dec -2.4 16:41:20 10° WNW 16:44:31 41° SSW 16:47:41 10° SE visible
06 Dec -0.6 17:30:31 10° WSW 17:32:11 13° SW 17:33:51 10° SSW visible
07 Dec -0.8 16:41:13 10° W 16:43:45 20° SW 16:46:17 10° S visible
